loading
DOY 173 | 2024-06-21T05:07:04Z

THOR ABLESTAR DEB, 141

Orbit data source: Space-Track

THOR ABLESTAR DEB, 141 is space debris in LEO originally from a launch on Thu, 29 Jun 1961 UTC launched from the Air Force Eastern Test Range (AFETR). Debris objects in space refer to the collection of defunct objects orbiting the Earth. Examples of debris include non-operational satellites, rocket bodies, and fragments generated from explosions, collisions, or faulty payload assembly.

Loading next visibility...
Loading greatness...
THOR ABLESTAR DEB details
NORAD ID141
COSPAR ID
1961-015AB
Orbit
LEO
Last TLE update1 day ago
Origin
Flag of USUSAF SSD (US)
ManufacturerUnknown
BusUnknown
MotorUnknown
MassWet unknown, Dry mass unknown
Launch date (UTC)
1961-06-29 (63 years ago)
Launch vehicleUnknown
Launch site
Air Force Eastern Test Range (AFETR)
Object type
Payload
Rocket body
Debris
Radar Cross SectionMedium (>0.1 m² and <1 m²)
Predictive object data (real-time)
Latitude65.66513°
Longitude-134.99221°
Altitude944.041 km
Speed7.387 km/s
Apparent Right ascension05h 00m 29s
Apparent Declination18° 49' 52"
Sunlit
Object is in daylight
Predictive observer data (real-time)
Local Sidereal Time16:06:11
Azimuth345.151° N
Elevation-29.903°
Doppler factor1
Orbital elements
Apogee972.955 km
Perigee895.219 km
Semi-major axis7,312.224 km
Eccentricity0.0053155
Inclination66.5901°
RAAN28.448°
Arg. of periapsis170.8073°
True anomaly189.30008°
Mean anomaly189.3989°
Mean motion3.47111 °/min
BSTAR0.00043194
Period103.71 mins
Definitive object data (Epoch: 2024-06-19T21:35:25.719Z)
Latitude0.00002°
Longitude155.99147°
Altitude976.089 km
Speed7.345 km/s
True Right ascension01h 53m 47s
True Declination0° 00' 00"
Sunlit
Object was in daylight at TLE epoch
TLE from 1 day ago
0 THOR ABLESTAR DEB
1 00141U 61015AB  24171.89960323  .00000443  00000-0  43194-3 0  9999
2 00141  66.5901  28.4480 0053155 170.8073 189.3989 13.87994555170849
Epoch: 2024-06-19T21:35Z
No data available

THOR ABLESTAR DEB Visibility forecast

Observer location: 39.9160978°, -105.1181434, 0m alt.

THOR ABLESTAR DEB is not visible in the next 10 days
Span
Click to sort rows by Start time (UTC) header in descending order
Start Az.
Max El. time (UTC)
Max El. Az.
Max El.
End time (UTC)
End Az.